CW8285 Weather Reports


time (UTC)temp
F
wind
direction
speed
knots
gust
knots
rain 1hr
in
rain 24hr
in
rain mn
in
humidity
%
barometer
mb
20260503184755 62 274 1.7 2.6 0.00 0.00 0.00 33 1020.3
20260503184252 62 283 2.6 2.6 0.00 0.00 0.00 30 1020.5
20260503183748 62 287 2.6 2.6 0.00 0.00 0.00 28 1020.5
20260503183246 62 294 0.9 1.7 0.00 0.00 0.00 32 1020.4
20260503182743 62 277 0.9 2.6 0.00 0.00 0.00 27 1020.5
20260503182242 61 293 0.9 1.7 0.00 0.00 0.00 32 1020.5
20260503181738 59 291 1.7 4.3 0.00 0.00 0.00 32 1020.7
20260503181235 59 288 2.6 2.6 0.00 0.00 0.00 33 1020.7
20260503180732 60 289 2.6 2.6 0.00 0.00 0.00 28 1020.8
20260503180230 60 248 1.7 2.6 0.00 0.00 0.00 28 1021.0
20260503175726 59 292 0.9 2.6 0.00 0.00 0.00 35 1021.0
20260503175224 59 289 1.7 4.3 0.00 0.00 0.00 36 1020.9
20260503174720 59 295 0.9 4.3 0.00 0.00 0.00 29 1020.9
20260503174219 59 295 1.7 2.6 0.00 0.00 0.00 32 1021.1
20260503173713 58 285 2.6 2.6 0.00 0.00 0.00 34 1021.1
20260503173209 58 296 1.7 4.3 0.00 0.00 0.00 31 1021.1
20260503172706 58 274 1.7 2.6 0.00 0.00 0.00 33 1021.1
20260503172203 56 286 2.6 2.6 0.00 0.00 0.00 34 1021.2
20260503171700 57 291 2.6 4.3 0.00 0.00 0.00 31 1021.2
20260503171157 57 279 2.6 4.3 0.00 0.00 0.00 34 1021.3
20260503170654 56 274 2.6 2.6 0.00 0.00 0.00 33 1021.1
20260503170151 57 276 1.7 2.6 0.00 0.00 0.00 33 1021.3
20260503160112 53 286 1.7 2.6 0.00 0.00 0.00 43 1022.3
20260503150542 50 300 1.7 2.6 0.00 0.00 0.00 46 1022.1
20260503130932 42 294 0.9 0.9 0.00 0.00 0.00 70 1021.9
20260503130430 42 289 0.9 1.7 0.00 0.00 0.00 67 1021.9
20260503110331 32 296 0.0 0.0 0.00 0.00 0.00 92 1020.9
20260503100257 34 299 0.0 0.9 0.00 0.00 0.00 88 1019.9
20260503090223 37 296 0.0 0.0 0.00 0.00 0.00 80 1019.5
20260503081150 39 286 0.0 0.9 0.00 0.00 0.00 74 1019.2
20260503080646 39 290 0.0 1.7 0.00 0.00 0.00 74 1019.1
20260503080143 39 289 0.0 0.9 0.00 0.00 0.00 76 1019.0
20260503072620 39 295 0.0 1.7 0.00 0.00 0.00 76 1018.6
20260503072117 39 290 0.0 0.9 0.00 0.00 0.00 76 1018.7
20260503071614 38 290 0.0 0.9 0.00 0.00 0.00 76 1018.6
20260503071111 38 295 0.0 0.9 0.00 0.00 0.00 77 1018.6
20260503070608 38 294 0.0 0.0 0.00 0.00 0.00 80 1018.4
20260503070106 38 293 0.0 0.9 0.00 0.00 0.00 81 1018.5
20260503055026 35 295 0.0 0.0 0.00 0.00 0.00 88 1018.7
20260503054522 35 294 0.0 0.0 0.00 0.00 0.00 87 1018.6
20260503054020 35 305 0.0 0.0 0.00 0.00 0.00 88 1018.5
20260503053517 35 295 0.0 0.0 0.00 0.00 0.00 87 1018.5
20260503053015 35 295 0.0 0.9 0.00 0.00 0.00 86 1018.6
20260503052511 35 293 0.0 0.0 0.00 0.00 0.00 86 1018.7
20260503052008 36 295 0.0 0.0 0.00 0.00 0.00 86 1018.6
20260503051503 36 295 0.0 0.9 0.00 0.00 0.00 86 1018.6
20260503051001 36 306 0.9 0.9 0.00 0.00 0.00 85 1018.5
20260503050456 36 299 0.0 0.9 0.00 0.00 0.00 85 1018.5
20260503045954 36 295 0.0 0.0 0.00 0.00 0.00 83 1018.9
20260503045451 36 294 0.0 0.0 0.00 0.00 0.00 83 1018.7
20260503044948 36 296 0.0 0.0 0.00 0.00 0.00 82 1018.6
20260503044445 37 294 0.0 0.0 0.00 0.00 0.00 83 1018.5
20260503043943 37 295 0.0 0.9 0.00 0.00 0.00 82 1018.4
20260503043438 37 292 0.0 0.0 0.00 0.00 0.00 81 1018.7
20260503042935 37 295 0.0 0.0 0.00 0.00 0.00 81 1018.5
20260503042432 37 297 0.0 0.0 0.00 0.00 0.00 80 1018.5
20260503041929 37 302 0.0 0.9 0.00 0.00 0.00 80 1018.3
20260503041425 38 292 0.0 0.0 0.00 0.00 0.00 78 1018.4
20260503040923 38 292 0.0 0.0 0.00 0.00 0.00 78 1018.2
20260503040420 38 303 0.0 0.0 0.00 0.00 0.00 78 1018.3
20260503035917 39 300 0.0 0.0 0.00 0.00 0.00 77 1018.0
20260503035414 39 297 0.0 0.0 0.00 0.00 0.00 76 1018.0
20260503034911 39 295 0.0 0.0 0.00 0.00 0.00 76 1017.9
20260503034409 39 307 0.0 0.9 0.00 0.00 0.00 76 1018.0
20260503033906 39 295 0.0 0.0 0.00 0.00 0.00 75 1017.9
20260503033403 39 300 0.0 0.0 0.00 0.00 0.00 74 1017.8
20260503032901 40 305 0.0 0.9 0.00 0.00 0.00 74 1017.7
20260503032400 40 300 0.0 0.9 0.00 0.00 0.00 74 1017.7
20260503031857 40 296 0.0 0.0 0.00 0.00 0.00 71 1017.4
20260503031355 40 320 0.9 0.9 0.00 0.00 0.00 74 1017.8
20260503030850 40 303 0.9 0.9 0.00 0.00 0.00 75 1017.7
20260503030348 40 298 0.9 0.9 0.00 0.00 0.00 75 1017.8
20260503025844 40 293 0.0 0.0 0.00 0.00 0.00 73 1017.7
20260503025342 40 297 0.0 0.9 0.00 0.00 0.00 73 1017.7
20260503024839 40 296 0.0 0.9 0.00 0.00 0.00 73 1017.8
20260503024335 40 297 0.0 0.9 0.00 0.00 0.00 75 1017.7
20260503023832 40 297 0.0 0.9 0.00 0.00 0.00 74 1017.8
20260503023329 40 293 0.0 0.0 0.00 0.00 0.00 72 1017.7
20260503022826 41 293 0.0 0.0 0.00 0.00 0.00 73 1017.4
20260503022326 41 298 0.0 0.0 0.00 0.00 0.00 70 1017.7
20260503021822 41 294 0.9 0.9 0.00 0.00 0.00 70 1017.4
20260503021319 41 294 0.0 0.0 0.00 0.00 0.00 69 1017.3
20260503020816 41 298 0.0 0.0 0.00 0.00 0.00 67 1017.4
20260503020314 42 295 0.0 0.0 0.00 0.00 0.00 68 1017.2
20260503015810 42 294 0.0 0.0 0.00 0.00 0.00 65 1017.2
20260503015308 42 296 0.0 0.0 0.00 0.00 0.00 65 1017.1
20260503014803 43 303 0.0 0.0 0.00 0.00 0.00 64 1017.1
20260503014301 43 301 0.0 0.9 0.00 0.00 0.00 63 1017.0
20260503013758 44 301 0.0 0.9 0.00 0.00 0.00 64 1017.2
20260503013255 44 299 0.0 0.9 0.00 0.00 0.00 63 1017.0
20260503012752 45 313 0.9 0.9 0.00 0.00 0.00 59 1017.1
20260503012250 46 286 0.9 1.7 0.00 0.00 0.00 53 1016.9
20260503011746 46 294 0.0 0.0 0.00 0.00 0.00 55 1016.8
20260503011243 46 296 0.0 0.9 0.00 0.00 0.00 56 1016.8
20260503010739 46 295 0.0 0.0 0.00 0.00 0.00 54 1016.6
20260503010236 46 294 0.9 1.7 0.00 0.00 0.00 51 1016.6
20260503005734 46 299 0.0 0.0 0.00 0.00 0.00 52 1016.5
20260503005231 47 303 0.0 0.0 0.00 0.00 0.00 54 1016.6
20260503004727 47 295 0.0 1.7 0.00 0.00 0.00 51 1016.1
20260503004226 47 296 0.0 0.9 0.00 0.00 0.00 51 1016.3
20260503003722 47 283 0.9 0.9 0.00 0.00 0.00 52 1016.3
20260503003219 47 297 0.0 0.9 0.00 0.00 0.00 52 1016.3
20260503002716 48 293 0.9 1.7 0.00 0.00 0.00 51 1016.0
20260503002213 48 297 0.9 0.9 0.00 0.00 0.00 51 1015.9
20260503001709 48 294 0.0 0.0 0.00 0.00 0.00 48 1015.9
20260503001205 49 304 0.9 1.7 0.00 0.00 0.00 45 1015.7
20260503000704 49 294 0.9 1.7 0.00 0.00 0.00 45 1015.5
20260503000201 49 300 0.9 0.9 0.00 0.00 0.00 48 1015.7
20260502235657 49 296 0.0 1.7 0.00 0.00 0.00 47 1015.7
20260502235155 50 307 0.0 0.0 0.00 0.00 0.00 48 1015.7
20260502234651 50 289 0.0 4.3 0.00 0.00 0.00 43 1015.5
20260502234149 50 281 1.7 2.6 0.00 0.00 0.00 42 1015.3
20260502233644 51 296 0.9 2.6 0.00 0.00 0.00 42 1015.3
20260502233141 51 299 0.0 1.7 0.00 0.00 0.00 41 1015.5
20260502232637 52 290 3.5 4.3 0.00 0.00 0.00 41 1015.4
20260502232135 52 293 1.7 4.3 0.00 0.00 0.00 39 1015.3
20260502231631 53 292 0.0 0.9 0.00 0.00 0.00 45 1015.4
20260502231129 53 291 0.0 1.7 0.00 0.00 0.00 42 1015.2
20260502230627 53 301 0.9 2.6 0.00 0.00 0.00 41 1015.0
20260502230126 54 312 0.9 0.9 0.00 0.00 0.00 44 1015.0
20260502225620 54 286 0.0 1.7 0.00 0.00 0.00 37 1015.1
20260502225118 55 285 0.0 1.7 0.00 0.00 0.00 36 1015.1
20260502224614 55 283 0.0 0.9 0.00 0.00 0.00 43 1015.1
20260502224111 55 297 0.0 0.9 0.00 0.00 0.00 42 1015.2
20260502223609 55 290 0.0 1.7 0.00 0.00 0.00 44 1015.1
20260502223107 55 279 0.9 2.6 0.00 0.00 0.00 38 1015.0
20260502222604 55 293 0.0 0.9 0.00 0.00 0.00 41 1015.2
20260502222100 55 298 0.0 1.7 0.00 0.00 0.00 39 1015.0
20260502221556 55 290 0.9 2.6 0.00 0.00 0.00 37 1015.0
20260502221054 56 295 1.7 2.6 0.00 0.00 0.00 35 1015.1
20260502220549 58 281 1.7 2.6 0.00 0.00 0.00 35 1015.2
20260502220046 58 302 0.0 0.9 0.00 0.00 0.00 34 1014.6
20260502215543 59 308 2.6 2.6 0.00 0.00 0.00 36 1014.6
20260502215040 59 283 0.9 0.9 0.00 0.00 0.00 34 1014.6
20260502214537 57 288 0.9 4.3 0.00 0.00 0.00 37 1014.5
20260502214035 59 256 4.3 6.1 0.00 0.00 0.00 33 1014.4
20260502213531 59 266 1.7 1.7 0.00 0.00 0.00 33 1014.4
20260502213029 58 291 0.9 5.2 0.00 0.00 0.00 34 1014.2
20260502212528 59 303 2.6 4.3 0.00 0.00 0.00 33 1014.2
20260502212025 60 244 3.5 4.3 0.00 0.00 0.00 32 1014.4
20260502211520 59 284 0.9 2.6 0.00 0.00 0.00 33 1014.2
20260502211018 59 283 1.7 2.6 0.00 0.00 0.00 31 1014.3
20260502210515 58 288 0.9 5.2 0.00 0.00 0.00 31 1014.3
20260502210012 59 287 1.7 2.6 0.00 0.00 0.00 36 1014.0
20260502205508 60 298 0.9 1.7 0.00 0.00 0.00 32 1013.8
20260502205005 60 298 0.0 1.7 0.00 0.00 0.00 36 1014.1
20260502204502 60 292 0.0 0.9 0.00 0.00 0.00 34 1013.9
20260502204000 56 287 0.9 1.7 0.00 0.00 0.00 36 1014.0
20260502203457 56 310 0.9 2.6 0.00 0.00 0.00 37 1014.1
20260502202953 55 290 0.0 0.0 0.00 0.00 0.00 37 1014.2
20260502202450 57 289 1.7 1.7 0.00 0.00 0.00 37 1014.1
20260502201948 61 281 1.7 1.7 0.00 0.00 0.00 33 1014.1
20260502201444 62 289 0.9 2.6 0.00 0.00 0.00 33 1014.0
20260502200941 62 297 0.9 5.2 0.00 0.00 0.00 33 1014.1
20260502200437 62 294 0.9 1.7 0.00 0.00 0.00 37 1014.0
20260502195934 60 282 1.7 1.7 0.00 0.00 0.00 34 1014.1
20260502195431 61 289 2.6 2.6 0.00 0.00 0.00 31 1014.2
20260502194928 60 289 0.9 2.6 0.00 0.00 0.00 34 1014.1
20260502194425 59 285 0.9 1.7 0.00 0.00 0.00 39 1014.2
20260502193920 58 249 1.7 2.6 0.00 0.00 0.00 36 1014.2
20260502193418 58 289 0.9 2.6 0.00 0.00 0.00 35 1014.3
20260502192913 57 281 2.6 4.3 0.00 0.00 0.00 37 1014.1
20260502192410 56 279 0.9 1.7 0.00 0.00 0.00 40 1014.5
20260502191908 55 290 0.9 1.7 0.00 0.00 0.00 38 1014.6
20260502191405 54 287 0.0 1.7 0.00 0.00 0.00 41 1014.6
20260502190903 54 284 0.9 1.7 0.00 0.00 0.00 38 1014.7
20260502190400 54 285 0.9 0.9 0.00 0.00 0.00 40 1014.6
20260502185855 54 289 0.9 0.9 0.00 0.00 0.00 43 1014.7
20260502185351 54 288 0.0 0.9 0.00 0.00 0.00 41 1014.7